Location: Asheville, NC
(35.6000°N, 82.5500°W)
Time: 00:17:55
(UTC-04:00)

Envisat - Pass Details

Date: 16 March 2018
Orbit: 764 x 766 km, 98.2° (Epoch: 22 June)

Event Time Altitude Azimuth Distance (km) Brightness Sun altitude
Rises 22:18:10 0° 211° (SSW) 3,212 6.3 -32.4°
Reaches altitude 10° 22:21:34 10° 236° (SW) 2,292 5.8 -33.0°
Maximum altitude 22:24:15 14° 268° (W) 2,008 5.8 -33.5°
Drops below altitude 10° 22:26:56 10° 300° (WNW) 2,300 6.3 -34.0°
Sets 22:30:22 0° 325° (NW) 3,232 7.0 -34.6°
